Location: G�kdere
(37.0328°N, 30.9000°E)
Time: 02:23:17
(UTC+00:00)

Cosmos 192 - Pass Details

Date: 03 March 2021
Orbit: 700 x 714 km, 74.0° (Epoch: 22 April)

Event Time Altitude Azimuth Distance (km) Brightness Sun altitude
Rises 17:32:56 0° 196° (SSW) 3,069 7.7 -20.8°
Reaches altitude 10° 17:35:14 10° 196° (SSW) 2,155 6.9 -21.3°
Maximum altitude 17:40:06 89° 112° (ESE) 706 4.2 -22.2°
Drops below altitude 10° 17:45:01 10° 18° (NNE) 2,175 6.8 -23.2°
Sets 17:47:21 0° 19° (NNE) 3,099 7.6 -23.6°
